TimeCST,TemperatureF,Dew PointF,Humidity,Sea Level PressureIn,VisibilityMPH,Wind Direction,Wind SpeedMPH,Gust SpeedMPH,PrecipitationIn,Events,Conditions,WindDirDegrees,DateUTC
12:15 AM,44.6,32.0,61,30.19,10.0,WNW,4.6,-,N/A,,Clear,300,2013-03-01 06:15:00
12:35 AM,44.6,32.0,61,30.18,10.0,WNW,5.8,-,N/A,,Clear,300,2013-03-01 06:35:00
1:15 AM,44.6,32.0,61,30.18,10.0,WNW,5.8,-,N/A,,Clear,300,2013-03-01 07:15:00
1:35 AM,43.9,32.0,63,30.18,10.0,WNW,6.9,-,N/A,,Clear,300,2013-03-01 07:35:00
1:55 AM,43.0,32.0,65,30.17,10.0,WNW,5.8,-,N/A,,Clear,300,2013-03-01 07:55:00
2:15 AM,43.7,32.2,64,30.18,10.0,WNW,4.6,-,N/A,,Clear,290,2013-03-01 08:15:00
2:35 AM,42.8,32.0,66,30.17,10.0,WNW,4.6,-,N/A,,Clear,290,2013-03-01 08:35:00
2:55 AM,42.6,31.8,66,30.17,10.0,WNW,4.6,-,N/A,,Clear,290,2013-03-01 08:55:00
3:35 AM,43.0,31.6,64,30.17,10.0,West,4.6,-,N/A,,Clear,270,2013-03-01 09:35:00
3:55 AM,41.7,31.6,67,30.17,10.0,West,4.6,-,N/A,,Clear,280,2013-03-01 09:55:00
4:15 AM,41.5,31.6,68,30.17,10.0,West,5.8,-,N/A,,Clear,280,2013-03-01 10:15:00
4:35 AM,42.4,31.5,65,30.18,10.0,West,6.9,-,N/A,,Clear,270,2013-03-01 10:35:00
4:55 AM,41.5,31.6,68,30.18,10.0,West,6.9,-,N/A,,Clear,280,2013-03-01 10:55:00
5:15 AM,41.5,31.6,68,30.18,10.0,West,5.8,-,N/A,,Clear,280,2013-03-01 11:15:00
5:35 AM,41.4,31.1,67,30.18,10.0,WNW,9.2,-,N/A,,Clear,300,2013-03-01 11:35:00
5:55 AM,42.3,30.7,64,30.18,10.0,NW,10.4,-,0.01,,Clear,310,2013-03-01 11:55:00
6:00 AM,42.8,30.2,61,30.18,10.0,NW,11.5,-,N/A,,Clear,310,2013-03-01 12:00:00
6:50 AM,41.0,30.2,65,30.20,10.0,NW,11.5,-,N/A,,Clear,310,2013-03-01 12:50:00
7:55 AM,42.8,32.0,66,30.22,10.0,NW,11.5,-,N/A,,Clear,310,2013-03-01 13:55:00
12:56 PM,59.0,28.4,31,30.19,10.0,NNW,17.3,-,N/A,,Clear,330,2013-03-01 18:56:00
1:58 PM,60.8,24.8,25,30.14,10.0,NW,12.7,26.5,N/A,,Clear,310,2013-03-01 19:58:00
2:53 PM,62.6,24.8,24,30.14,10.0,NW,12.7,23.0,N/A,,Clear,320,2013-03-01 20:53:00
4:45 PM,60.8,23.0,23,30.13,10.0,NW,17.3,25.3,N/A,,Clear,320,2013-03-01 22:45:00
5:50 PM,57.2,23.0,27,30.14,10.0,NW,12.7,20.7,N/A,,Clear,320,2013-03-01 23:50:00
6:50 PM,53.6,26.6,35,30.17,10.0,NNW,9.2,-,N/A,,Clear,330,2013-03-02 00:50:00
8:45 PM,50.0,30.2,47,30.20,10.0,Calm,Calm,-,N/A,,Clear,0,2013-03-02 02:45:00
9:45 PM,46.4,32.0,57,30.21,10.0,Calm,Calm,-,N/A,,Clear,0,2013-03-02 03:45:00
10:15 PM,46.6,31.1,55,30.22,10.0,NNW,4.6,-,N/A,,Clear,340,2013-03-02 04:15:00
10:35 PM,45.5,31.1,57,30.22,10.0,NNW,4.6,-,N/A,,Clear,340,2013-03-02 04:35:00
10:55 PM,45.7,31.3,57,30.22,10.0,Calm,Calm,-,N/A,,Clear,0,2013-03-02 04:55:00
11:15 PM,46.2,31.1,56,30.22,10.0,Calm,Calm,-,N/A,,Clear,0,2013-03-02 05:15:00
11:35 PM,45.1,31.6,59,30.22,10.0,WNW,3.5,-,N/A,,Clear,290,2013-03-02 05:35:00
11:55 PM,44.1,32.0,63,30.21,10.0,WNW,3.5,-,N/A,,Scattered Clouds,290,2013-03-02 05:55:00